This is the latest recevied weather packets stored in our database for station/object KN6IYI-13. If no packets are shown the sender has not sent any weather packets the latest 1 day(s).
| Time | Temp. | Humidity | Pressure | Rain* | Wind** | Luminosity | Snow |
|---|---|---|---|---|---|---|---|
| 1778014951 | 19.44° C | 6% | - | 0 mm | 0 m/s | - | - |
| 1778014691 | 19.44° C | 6% | - | 0 mm | 2.24 m/s, 278° | - | - |
| 1778014421 | 19.44° C | 6% | - | 0 mm | 2.24 m/s, 266° | - | - |
| 1778014166 | 18.89° C | 6% | - | 0 mm | 1.79 m/s, 299° | - | - |
| 1778013911 | 19.44° C | 6% | - | 0 mm | 0 m/s | - | - |
| 1778013651 | 19.44° C | 6% | - | 0 mm | 1.34 m/s, 256° | - | - |
| 1778013386 | 19.44° C | 6% | - | 0 mm | 0 m/s | - | - |
| 1778013095 | 19.44° C | 6% | - | 0 mm | 1.34 m/s, 302° | - | - |
| 1778012836 | 18.89° C | 6% | - | 0 mm | 2.24 m/s, 289° | - | - |
| 1778012536 | 18.89° C | 6% | - | 0 mm | 0 m/s | - | - |
| 1778012241 | 18.89° C | 6% | - | 0 mm | 0.45 m/s, 264° | - | - |
| 1778011956 | 18.89° C | 6% | - | 0 mm | 0 m/s | - | - |
| 1778011681 | 18.33° C | 6% | - | 0 mm | 0.45 m/s, 296° | - | - |
| 1778011391 | 18.33° C | 6% | - | 0 mm | 0.45 m/s, 258° | - | - |
| 1778011091 | 18.33° C | 6% | - | 0 mm | 1.79 m/s, 257° | - | - |
| 1778010841 | 18.33° C | 6% | - | 0 mm | 0 m/s | - | - |
| 1778010571 | 18.33° C | 6% | - | 0 mm | 2.24 m/s, 296° | - | - |
| 1778010281 | 18.89° C | 6% | - | 0 mm | 2.24 m/s, 268° | - | - |
| 1778010001 | 18.89° C | 6% | - | 0 mm | 0.89 m/s, 326° | - | - |
| 1778009716 | 18.89° C | 6% | - | 0 mm | 0.89 m/s, 249° | - | - |
| 1778009436 | 18.33° C | 6% | - | 0 mm | 2.24 m/s, 288° | - | - |
| 1778009135 | 18.33° C | 7% | - | 0 mm | 0.89 m/s, 317° | - | - |
| 1778008870 | 18.33° C | 6% | - | 0 mm | 1.79 m/s, 239° | - | - |
| 1778008626 | 18.33° C | 6% | - | 0 mm | 1.34 m/s, 259° | - | - |
| 1778008326 | 18.33° C | 6% | - | 0 mm | 2.68 m/s, 276° | - | - |
* Rain latest hour (hover to see other rain measurements)
** Current wind speed in m/s (hover to see current wind gust speed)